Location: Follega
(52.8850°N, 5.7362°E)
Time: 21:36:52
(UTC+00:00)

STARLINK-1236 - Pass Details

Date: 06 October 2020
Orbit: 548 x 551 km, 53.0° (Epoch: 26 October)

Event Time Altitude Azimuth Distance (km) Brightness Sun altitude
Exits shadow 04:25:38 12° 217° (SW) 1,694 5.7 -13.2°
Drops below altitude 10° 04:26:38 10° 203° (SSW) 1,809 5.9 -13.0°
Sets 04:30:07 0° 173° (S) 2,711 7.2 -12.5°
